Regional Weather Roundup
Issued by NWS

Home | Current Version | Previous Version | Text Only | Print | Product List | Glossary Off
Versions: 1 2 3 4 5 6 7 8 9 10 11 12 13 14 15 16 17 18 19 20 21 22 23 24 25 26 27 28 29 30 31 32 33 34 35 36 37 38 39 40 41 42 43 44 45 46 47 48 49 50

000
ASUS43 KLSX 030559
RWRMO

WEATHER SUMMARY FOR MISSOURI
NATIONAL WEATHER SERVICE SPRINGFIELD MO
100 AM CDT FRI JUL 03 2015

NOTE: "FAIR" INDICATES FEW OR NO CLOUDS BELOW 12,000 FEET WITH NO
       SIGNIFICANT WEATHER AND/OR OBSTRUCTIONS TO VISIBILITY.
       CURRENT SKY AND/OR WEATHER CONDITIONS ARE NOT AVAILABLE FOR
       CHILLICOTHE AND FARMINGTON.

MOZ001>031-035>038-043-044-053-054-030700-
...NORTHERN AND WESTERN MISSOURI...

CITY           SKY/WX    TMP DP  RH WIND       PRES   REMARKS
KANSAS CTY INT CLOUDY    67  66  97 E8        29.95R
6HR MIN TEMP:  67; 6HR MAX TEMP:  70; 6HR PCP:  0.11;

KANSAS C DTWN  CLOUDY    71  65  81 E7        29.94R
6HR MIN TEMP:  69; 6HR MAX TEMP:  72; 6HR PCP: TRACE;

LEE`S SUMMIT   CLOUDY    69  65  86 E8        29.95S
6HR MIN TEMP:  69; 6HR MAX TEMP:  72; 6HR PCP: TRACE;

ST JOSEPH      CLOUDY    66  60  81 NE6       29.95S
6HR MIN TEMP:  66; 6HR MAX TEMP:  71;

CHILLICOTHE      N/A     66  60  81 NE5       29.97F
6HR MIN TEMP:  66; 6HR MAX TEMP:  73;

KIRKSVILLE     CLOUDY    63  60  90 N3        29.98S
6HR MIN TEMP:  63; 6HR MAX TEMP:  67; 6HR PCP: TRACE;


$$
MOZ066>068-077>081-088>096-101>105-030700-
...SOUTHWEST MISSOURI...

CITY           SKY/WX    TMP DP  RH WIND       PRES   REMARKS
SPRINGFIELD    CLOUDY    73  70  90 NE5       29.92F
6HR MIN TEMP:  72; 6HR MAX TEMP:  78; 6HR PCP: TRACE;

JOPLIN         CLOUDY    71  70  96 N3        29.92F FOG
6HR MIN TEMP:  71; 6HR MAX TEMP:  78; 6HR PCP: TRACE;


$$
MOZ032>034-039>042-045>050-055>058-069>072-030700-
...CENTRAL MISSOURI...

CITY           SKY/WX    TMP DP  RH WIND       PRES   REMARKS
COLUMBIA       LGT RAIN  67  62  84 E8        29.95F
6HR MIN TEMP:  67; 6HR MAX TEMP:  74; 6HR PCP: TRACE;

JEFFERSON CITY CLOUDY    69  62  78 VRB3      29.94S
6HR MIN TEMP:  69; 6HR MAX TEMP:  74;

ROLLA          CLOUDY    68  66  93 NE6       29.92S
6HR MIN TEMP:  68; 6HR MAX TEMP:  72;

SEDALIA        CLOUDY    69  61  75 NE6       29.96S
6HR MIN TEMP:  69; 6HR MAX TEMP:  74;

OSAGE BEACH    CLOUDY    70  66  88 NE5       29.93F

$$
MOZ051-052-059>065-030700-
...EAST CENTRAL MISSOURI...

CITY           SKY/WX    TMP DP  RH WIND       PRES   REMARKS
ST LOUIS INTL  CLOUDY    70  62  76 N3        29.92F
6HR MIN TEMP:  69; 6HR MAX TEMP:  76;

SPIRIT OF STL  MOCLDY    69  62  78 CALM      29.91F
6HR MIN TEMP:  69; 6HR MAX TEMP:  75;

ST CHARLES     CLOUDY    68  62  81 N5        29.91F
6HR MIN TEMP:  68; 6HR MAX TEMP:  73;


$$
MOZ072>076-082>087-097>100-106>115-030700-
...SOUTH CENTRAL AND SOUTHEAST MISSOURI...

CITY           SKY/WX    TMP DP  RH WIND       PRES   REMARKS
CAPE GIRARDEAU CLOUDY    73  70  90 CALM      29.87F
6HR MIN TEMP:  72; 6HR MAX TEMP:  79;

FARMINGTON     CLOUDY    70  66  88 NE8       29.95S
6HR MIN TEMP:  70; 6HR MAX TEMP:  72;

POPLAR BLUFF   CLOUDY    73  70  90 MISG      29.86F
6HR MIN TEMP:  72; 6HR MAX TEMP:  82; 6HR PCP:  0.24;

WEST PLAINS    LGT RAIN  70  67  90 W6        29.92F
6HR MIN TEMP:  70; 6HR MAX TEMP:  80; 6HR PCP:  0.03;


$$


USA.gov is the U.S. government's official web portal to all federal, state and local government web resources and services.